Location: Albany
(35.0000°S, 118.0000°E)
Time: 03:52:06
(UTC-05:00)

Cosmos 1626 - Visible Passes

Search period start: 13 February 2016 00:00
Search period end: 23 February 2016 00:00
Orbit: 502 x 505 km, 82.5° (Epoch: 13 February)

Date Brightness Start Highest point End Pass type
(mag) Time Alt. Az. Time Alt. Az. Time Alt. Az.
13 Feb 2.6 15:30:41 22° NW 15:32:46 43° W 15:36:26 10° S visible
14 Feb 2.1 15:12:39 37° NNW 15:13:57 62° W 15:17:45 10° S visible
15 Feb 2.0 14:54:34 64° N 14:55:07 89° W 14:58:59 10° S visible
16 Feb 2.5 14:36:26 63° E 14:36:26 63° E 14:40:07 10° SSE visible
17 Feb 3.5 14:18:14 38° ESE 14:18:14 38° ESE 14:21:11 10° SSE visible
18 Feb 4.4 14:00:01 24° SE 14:00:01 24° SE 14:02:08 10° SSE visible
18 Feb 4.3 15:34:48 13° WSW 15:34:48 13° WSW 15:36:08 10° SW visible
19 Feb 5.0 13:41:44 16° SE 13:41:44 16° SE 13:42:58 10° SE visible
19 Feb 4.2 15:16:31 16° SW 15:16:31 16° SW 15:18:00 10° SSW visible
20 Feb 5.5 13:23:26 11° SE 13:23:26 11° SE 13:23:37 10° SE visible
20 Feb 4.2 14:58:12 17° SW 14:58:12 17° SW 14:59:34 10° SSW visible
21 Feb 4.4 14:39:51 17° SSW 14:39:51 17° SSW 14:40:59 10° SSW visible
22 Feb 4.7 14:21:29 15° S 14:21:29 15° S 14:22:17 10° S visible
